BREEZE-M DEB (TANK), 55843

Orbit data source: Space-Track

BREEZE-M DEB (TANK), 55843 is space debris in HEO originally from a launch on Sun, 12 Mar 2023 UTC launched from the Tyuratam Missile And Space Complex (TTMTR). Debris objects in space refer to the collection of defunct objects orbiting the Earth. Examples of debris include non-operational satellites, rocket bodies, and fragments generated from explosions, collisions, or faulty payload assembly.

Loading next visibility...
Identifier
55843, 2023-031C
Orbit
HEO
Country
Flag of CISCIS
Related business
Manufacturer
Khrunichev
Mission
Spacecraft
Bus & Motor
BRIZ TANK, Unknown motor
Mass
~1,000 kg wet, 1,000 kg dry
Launch date (UTC)
2023-03-12 (3 years ago)
Launch vehicle
Unknown
Launch site
Tyuratam Missile And Space Complex (TTMTR)
Object type
Payload
Rocket body
Debris
Shape & HBR
Torus, 2.0 m
Radar Cross Section
8.218 m², Large (>1 m²)

Expand to show TLE details & history
Last TLE update: 4 months ago

TLE from 4 months ago
0 BREEZE-M DEB (TANK)
1 55843U 23031C   25161.80000000  .00000123 -13292-6  00000+0 0  9996
2 55843  48.6630 260.9700 6265222 236.4400  96.9820  3.77318395 20745
Epoch: 2025-06-10T19:11Z
TLE epoch observation values (Epoch: 2025-06-10T19:12:00.000Z)
Latitude
21.32823°
Longitude
93.63338°
Altitude
17,465.602 km
Speed
3.251 km/s
True Right ascension
18h 44m 06s
True Declination
21° 17' 36"
Sunlit
Object was in daylight at epoch
Visualization orbit readout
Latitude
Unknown
Longitude
Unknown
Altitude
Unknown
Speed
Unknown
Apparent Right ascension
Unknown
Apparent Declination
Unknown
Sunlit
N/A
Visualization observer readout
Local Sidereal Time
16:47:18
Azimuth
Unknown
Elevation
Unknown
Doppler factor
Unknown
Orbital elements
Apogee altitude
21,971.27 km
Perigee altitude
131.38 km
Semi-major axis
17,429.462 km
Eccentricity
0.62652
Inclination
48.663°
RAAN
260.97°
Arg. of periapsis
236.44°
True anomaly
152.56832°
Mean anomaly
96.982°
Eccentric anomaly
126.01706°
Mean motion
0.94323 °/min
Orbital period
381.67 mins
BSTAR
0
Loading maneuver chart data...
Computing Atmospheric mass density...
Loading historical data...
Loading historical data...
Loading historical data...
Loading historical data...
Loading historical data...
Loading historical data...
Loading historical data...
Other satellites on launch #31 in the year 2023 (2023-03-12 UTC)

Documentation

Showing up to 5 results
|